ACA856 KATL-CYYZ

Flight info

Callsign ACA856
Flight time 1h 38m
Altitude 39000
Route PADGT2 SMTTH Q67 HNN DCT DJB DCT QWERI NUBER6
Aircraft B77W/H-SDE1E2E3FGHIJ2J3J4J5M1RWXY/LB1D1

Departure

Time 2026-05-07 18:53
Airport Hartsfield Jackson Atlanta International Airport (KATL)

Arrival

Time 2026-05-07 20:32
Airport Toronto Pearson International Airport (CYYZ)
Time Latitude Longitude Altitude Speed Heading
2026-05-07 18:36 33.64402 -84.42505 1011 ft 0 kts 271°
2026-05-07 18:46 33.64402 -84.42485 1011 ft 2 kts 271°
2026-05-07 18:46 33.64401 -84.42466 1011 ft 2 kts 271°
2026-05-07 18:46 33.64401 -84.42446 1011 ft 2 kts 259°
2026-05-07 18:46 33.64406 -84.42436 1011 ft 0 kts 178°
2026-05-07 18:48 33.64389 -84.42435 1011 ft 9 kts 175°
2026-05-07 18:48 33.64307 -84.42414 1011 ft 13 kts 153°
2026-05-07 18:49 33.64266 -84.42325 1011 ft 13 kts 93°
2026-05-07 18:49 33.64311 -84.42244 1011 ft 13 kts 20°
2026-05-07 18:49 33.64402 -84.42239 1011 ft 13 kts 359°
2026-05-07 18:49 33.64486 -84.42204 1011 ft 13 kts 44°
2026-05-07 18:50 33.64531 -84.42110 1011 ft 13 kts 73°
2026-05-07 18:50 33.64539 -84.41949 1011 ft 32 kts 89°
2026-05-07 18:50 33.64549 -84.41659 1012 ft 35 kts 88°
2026-05-07 18:50 33.64541 -84.41377 1012 ft 33 kts 94°
2026-05-07 18:51 33.64540 -84.41104 1012 ft 33 kts 89°
2026-05-07 18:51 33.64543 -84.40843 1011 ft 29 kts 89°
2026-05-07 18:51 33.64545 -84.40653 1011 ft 12 kts 89°
2026-05-07 18:51 33.64588 -84.40579 1010 ft 12 kts 24°
2026-05-07 18:52 33.64668 -84.40595 1009 ft 13 kts 309°
2026-05-07 18:52 33.64679 -84.40686 1009 ft 6 kts 274°
2026-05-07 18:52 33.64680 -84.40694 1009 ft 0 kts 274°
2026-05-07 18:53 33.64681 -84.40716 1009 ft 15 kts 272°
2026-05-07 18:53 33.64682 -84.41193 1012 ft 101 kts 270°
2026-05-07 18:53 33.64686 -84.42346 1090 ft 163 kts 274°
2026-05-07 18:53 33.64688 -84.43761 1833 ft 168 kts 273°
2026-05-07 18:54 33.64681 -84.45126 2965 ft 162 kts 271°
2026-05-07 18:54 33.64774 -84.46470 3746 ft 164 kts 290°
2026-05-07 18:54 33.65280 -84.47706 4428 ft 168 kts 293°
2026-05-07 18:54 33.65795 -84.49051 4833 ft 194 kts 292°
2026-05-07 18:55 33.66397 -84.50639 5138 ft 225 kts 292°
2026-05-07 18:55 33.67068 -84.52391 5868 ft 234 kts 292°
2026-05-07 18:55 33.67747 -84.54155 6838 ft 234 kts 292°
2026-05-07 18:55 33.68521 -84.55905 7556 ft 245 kts 304°
2026-05-07 18:56 33.69877 -84.57255 8329 ft 263 kts 323°
2026-05-07 18:56 33.71567 -84.58185 9236 ft 275 kts 338°
2026-05-07 18:56 33.73534 -84.58378 10098 ft 291 kts 353°
2026-05-07 18:56 33.75618 -84.58278 10703 ft 311 kts 353°
2026-05-07 18:57 33.77887 -84.58186 10958 ft 342 kts 353°
2026-05-07 18:57 33.80370 -84.58120 11282 ft 369 kts 354°
2026-05-07 18:57 33.82968 -84.57610 11942 ft 391 kts
2026-05-07 18:57 33.85596 -84.56625 12988 ft 398 kts
2026-05-07 18:58 33.88234 -84.55594 14143 ft 401 kts
2026-05-07 18:58 33.90919 -84.54554 14972 ft 411 kts
2026-05-07 18:58 33.93686 -84.53503 15742 ft 422 kts
2026-05-07 18:58 33.96516 -84.52443 16564 ft 431 kts
2026-05-07 18:59 33.99408 -84.51366 17457 ft 439 kts
2026-05-07 18:59 34.02353 -84.50275 18296 ft 448 kts
2026-05-07 18:59 34.05360 -84.49163 18994 ft 456 kts
2026-05-07 18:59 34.08407 -84.48034 19773 ft 461 kts
2026-05-07 19:00 34.11449 -84.46904 20578 ft 465 kts
2026-05-07 19:00 34.14600 -84.45734 21348 ft 471 kts
2026-05-07 19:00 34.17752 -84.44564 22111 ft 477 kts
2026-05-07 19:00 34.20956 -84.43374 22829 ft 483 kts
2026-05-07 19:01 34.24145 -84.42188 23509 ft 489 kts
2026-05-07 19:01 34.27418 -84.40970 24111 ft 494 kts
2026-05-07 19:01 34.30726 -84.39766 24710 ft 495 kts
2026-05-07 19:01 34.34066 -84.38805 25324 ft 492 kts 359°
2026-05-07 19:02 34.37435 -84.38023 25948 ft 493 kts 358°
2026-05-07 19:02 34.40832 -84.37298 26542 ft 496 kts 357°
2026-05-07 19:02 34.44247 -84.36563 27140 ft 501 kts 357°
2026-05-07 19:02 34.47688 -84.35789 27709 ft 505 kts 358°
2026-05-07 19:03 34.51118 -84.34986 28251 ft 510 kts 358°
2026-05-07 19:03 34.54612 -84.34145 28761 ft 515 kts 358°
2026-05-07 19:03 34.58132 -84.33288 29288 ft 517 kts 359°
2026-05-07 19:03 34.61666 -84.32423 29767 ft 520 kts 358°
2026-05-07 19:04 34.65224 -84.31556 30185 ft 523 kts 358°
2026-05-07 19:04 34.67591 -84.30979 30485 ft 523 kts 358°
2026-05-07 19:04 34.71154 -84.30110 30997 ft 523 kts 358°
2026-05-07 19:04 34.74722 -84.29241 31522 ft 522 kts 358°
2026-05-07 19:05 34.78286 -84.28376 32010 ft 521 kts 358°
2026-05-07 19:05 34.81853 -84.27510 32444 ft 522 kts 358°
2026-05-07 19:05 34.85418 -84.26642 32937 ft 522 kts 358°
2026-05-07 19:05 34.88971 -84.25773 33494 ft 520 kts 358°
2026-05-07 19:06 34.92511 -84.24906 34004 ft 519 kts 357°
2026-05-07 19:06 34.99587 -84.23175 34828 ft 518 kts 357°
2026-05-07 19:06 35.03129 -84.22309 35237 ft 518 kts 357°
2026-05-07 19:07 35.06654 -84.21445 35697 ft 516 kts 357°
2026-05-07 19:07 35.10172 -84.20581 36118 ft 515 kts 357°
2026-05-07 19:07 35.13692 -84.19720 36431 ft 516 kts 357°
2026-05-07 19:07 35.17216 -84.18857 36767 ft 517 kts 357°
2026-05-07 19:08 35.20740 -84.17992 37146 ft 516 kts 357°
2026-05-07 19:08 35.24211 -84.17135 37564 ft 515 kts 357°
2026-05-07 19:08 35.27721 -84.16268 37918 ft 514 kts 356°
2026-05-07 19:08 35.31228 -84.15406 38197 ft 515 kts 356°
2026-05-07 19:09 35.34741 -84.14540 38559 ft 515 kts 356°
2026-05-07 19:09 35.38253 -84.13673 38843 ft 515 kts 357°
2026-05-07 19:09 35.41777 -84.12804 38949 ft 518 kts 357°
2026-05-07 19:09 35.45311 -84.11930 38987 ft 517 kts 357°
2026-05-07 19:10 35.52340 -84.10181 39003 ft 513 kts 356°
2026-05-07 19:10 35.59320 -84.08447 39010 ft 511 kts 356°
2026-05-07 19:11 35.66295 -84.06717 39013 ft 511 kts 356°
2026-05-07 19:11 35.73271 -84.04982 39016 ft 511 kts 356°
2026-05-07 19:12 35.80242 -84.03241 39017 ft 511 kts 356°
2026-05-07 19:12 35.87200 -84.01501 39012 ft 510 kts 356°
2026-05-07 19:13 35.94068 -83.98919 39017 ft 542 kts 14°
2026-05-07 19:13 36.00644 -83.94183 39020 ft 550 kts 19°
2026-05-07 19:14 36.07148 -83.89226 39020 ft 549 kts 18°
2026-05-07 19:14 36.13696 -83.84417 39024 ft 546 kts 17°
2026-05-07 19:15 36.20271 -83.79715 39012 ft 545 kts 17°
2026-05-07 19:15 36.26841 -83.75027 39004 ft 545 kts 17°
2026-05-07 19:16 36.33404 -83.70316 39017 ft 545 kts 17°
2026-05-07 19:16 36.39961 -83.65590 38997 ft 545 kts 17°
2026-05-07 19:17 36.46511 -83.60858 39001 ft 544 kts 17°
2026-05-07 19:17 36.53052 -83.56124 38986 ft 543 kts 17°
2026-05-07 19:18 36.59582 -83.51390 38996 ft 543 kts 17°
2026-05-07 19:18 36.66114 -83.46648 38998 ft 544 kts 17°
2026-05-07 19:19 36.72611 -83.41919 38986 ft 544 kts 17°
2026-05-07 19:19 36.79138 -83.37157 39004 ft 544 kts 17°
2026-05-07 19:20 36.85654 -83.32388 38982 ft 543 kts 17°
2026-05-07 19:20 36.92200 -83.27585 39003 ft 547 kts 17°
2026-05-07 19:21 36.98757 -83.22756 38991 ft 544 kts 17°
2026-05-07 19:21 37.05231 -83.17974 39004 ft 542 kts 17°
2026-05-07 19:22 37.11715 -83.13171 39005 ft 541 kts 18°
2026-05-07 19:22 37.18205 -83.08357 39000 ft 542 kts 18°
2026-05-07 19:23 37.24711 -83.03518 38991 ft 543 kts 17°
2026-05-07 19:23 37.31292 -82.99015 39010 ft 536 kts 14°
2026-05-07 19:24 37.37923 -82.94753 39002 ft 535 kts 14°
2026-05-07 19:24 37.44547 -82.90444 39010 ft 536 kts 15°
2026-05-07 19:25 37.51156 -82.86079 38998 ft 536 kts 15°
2026-05-07 19:25 37.57713 -82.81747 39010 ft 535 kts 15°
2026-05-07 19:26 37.64301 -82.77397 39011 ft 535 kts 15°
2026-05-07 19:26 37.70894 -82.73038 39001 ft 534 kts 16°
2026-05-07 19:27 37.77484 -82.68668 38998 ft 534 kts 16°
2026-05-07 19:27 37.84060 -82.64297 38984 ft 534 kts 16°
2026-05-07 19:28 37.90637 -82.59916 38985 ft 534 kts 16°
2026-05-07 19:28 37.97214 -82.55528 38973 ft 534 kts 16°
2026-05-07 19:29 38.03791 -82.51132 38994 ft 534 kts 17°
2026-05-07 19:29 38.10318 -82.46753 38991 ft 534 kts 17°
2026-05-07 19:30 38.16887 -82.42337 38993 ft 534 kts 17°
2026-05-07 19:30 38.23444 -82.37919 38983 ft 532 kts 17°
2026-05-07 19:31 38.29982 -82.33508 38992 ft 533 kts 17°
2026-05-07 19:31 38.36545 -82.29072 38999 ft 534 kts 17°
2026-05-07 19:32 38.43112 -82.24621 38984 ft 535 kts 17°
2026-05-07 19:32 38.49679 -82.20159 38996 ft 534 kts 17°
2026-05-07 19:33 38.56194 -82.15726 38994 ft 534 kts 17°
2026-05-07 19:33 38.62750 -82.11255 38988 ft 534 kts 17°
2026-05-07 19:34 38.69311 -82.06774 38996 ft 534 kts 17°
2026-05-07 19:34 38.72653 -82.04854 38981 ft 519 kts
2026-05-07 19:34 38.76084 -82.03620 38996 ft 505 kts 359°
2026-05-07 19:35 38.82918 -82.02785 38992 ft 483 kts 345°
2026-05-07 19:35 38.89627 -82.03181 38997 ft 482 kts 345°
2026-05-07 19:36 38.96333 -82.03613 38989 ft 482 kts 345°
2026-05-07 19:36 39.03031 -82.03989 38996 ft 481 kts 345°
2026-05-07 19:37 39.09718 -82.04332 38984 ft 481 kts 345°
2026-05-07 19:37 39.16402 -82.04669 38995 ft 480 kts 345°
2026-05-07 19:38 39.23044 -82.05005 38992 ft 480 kts 345°
2026-05-07 19:38 39.29713 -82.05343 38994 ft 479 kts 345°
2026-05-07 19:39 39.36370 -82.05683 38992 ft 478 kts 345°
2026-05-07 19:39 39.43020 -82.06025 38996 ft 478 kts 345°
2026-05-07 19:40 39.49667 -82.06367 38992 ft 478 kts 345°
2026-05-07 19:40 39.56313 -82.06709 38997 ft 477 kts 345°
2026-05-07 19:41 39.62956 -82.07052 38988 ft 477 kts 345°
2026-05-07 19:41 39.69590 -82.07395 38988 ft 477 kts 345°
2026-05-07 19:42 39.76187 -82.07736 38985 ft 477 kts 345°
2026-05-07 19:42 39.82832 -82.08080 38983 ft 478 kts 345°
2026-05-07 19:43 39.89468 -82.08424 38986 ft 478 kts 345°
2026-05-07 19:43 39.96118 -82.08771 38989 ft 478 kts 345°
2026-05-07 19:44 40.02766 -82.09118 38991 ft 478 kts 345°
2026-05-07 19:44 40.09427 -82.09465 38988 ft 478 kts 345°
2026-05-07 19:45 40.16087 -82.09815 38990 ft 479 kts 345°
2026-05-07 19:45 40.22708 -82.10161 38989 ft 479 kts 345°
2026-05-07 19:46 40.29385 -82.10512 38987 ft 479 kts 345°
2026-05-07 19:46 40.36051 -82.10863 38997 ft 479 kts 345°
2026-05-07 19:47 40.42731 -82.11216 38991 ft 480 kts 345°
2026-05-07 19:47 40.49412 -82.11569 38999 ft 481 kts 346°
2026-05-07 19:48 40.56104 -82.11925 38997 ft 482 kts 346°
2026-05-07 19:48 40.62816 -82.12281 38997 ft 483 kts 346°
2026-05-07 19:49 40.69537 -82.12638 38994 ft 484 kts 346°
2026-05-07 19:49 40.76262 -82.12995 38980 ft 484 kts 346°
2026-05-07 19:50 40.82948 -82.13352 38981 ft 484 kts 346°
2026-05-07 19:50 40.89686 -82.13713 38987 ft 485 kts 346°
2026-05-07 19:51 40.96433 -82.14076 38988 ft 486 kts 346°
2026-05-07 19:51 41.03200 -82.14440 38993 ft 487 kts 347°
2026-05-07 19:52 41.09981 -82.14805 38993 ft 488 kts 347°
2026-05-07 19:52 41.15634 -82.15109 38992 ft 489 kts 347°
2026-05-07 19:53 41.23536 -82.15535 38990 ft 489 kts 347°
2026-05-07 19:53 41.30344 -82.15904 38987 ft 490 kts 347°
2026-05-07 19:54 41.36010 -82.16212 38984 ft 490 kts 347°
2026-05-07 19:54 41.42812 -82.16665 38993 ft 489 kts 347°
2026-05-07 19:55 41.49618 -82.17177 38991 ft 490 kts 347°
2026-05-07 19:55 41.56442 -82.17685 38989 ft 490 kts 347°
2026-05-07 19:56 41.63265 -82.18181 38980 ft 491 kts 347°
2026-05-07 19:56 41.70045 -82.18671 38975 ft 491 kts 347°
2026-05-07 19:57 41.76865 -82.19164 38962 ft 490 kts 347°
2026-05-07 19:57 41.83687 -82.19661 38964 ft 490 kts 347°
2026-05-07 19:58 41.90506 -82.20158 38961 ft 490 kts 347°
2026-05-07 19:58 41.97319 -82.20656 38953 ft 490 kts 348°
2026-05-07 19:59 42.04136 -82.21155 38953 ft 490 kts 348°
2026-05-07 19:59 42.10907 -82.21652 38952 ft 490 kts 348°
2026-05-07 20:00 42.17716 -82.22153 38942 ft 490 kts 348°
2026-05-07 20:00 42.24520 -82.22654 38935 ft 490 kts 348°
2026-05-07 20:01 42.31326 -82.23157 38932 ft 490 kts 348°
2026-05-07 20:01 42.38141 -82.23662 38935 ft 490 kts 348°
2026-05-07 20:02 42.44957 -82.24167 38943 ft 490 kts 348°
2026-05-07 20:02 42.51784 -82.24675 38948 ft 491 kts 348°
2026-05-07 20:03 42.58602 -82.25183 38949 ft 491 kts 348°
2026-05-07 20:03 42.65468 -82.24906 38944 ft 511 kts
2026-05-07 20:04 42.68808 -82.23022 38957 ft 530 kts 25°
2026-05-07 20:04 42.71704 -82.19931 38940 ft 546 kts 43°
2026-05-07 20:04 42.76136 -82.11440 38950 ft 552 kts 52°
2026-05-07 20:05 42.80532 -82.02895 38949 ft 551 kts 51°
2026-05-07 20:05 42.84516 -81.93931 38951 ft 554 kts 58°
2026-05-07 20:06 42.88130 -81.84657 38946 ft 554 kts 59°
2026-05-07 20:06 42.89967 -81.80000 38400 ft 562 kts 58°
2026-05-07 20:06 42.91857 -81.75312 37603 ft 564 kts 58°
2026-05-07 20:07 42.93740 -81.70709 36845 ft 562 kts 58°
2026-05-07 20:07 42.95654 -81.66061 36075 ft 561 kts 58°
2026-05-07 20:07 42.97565 -81.61419 35239 ft 561 kts 58°
2026-05-07 20:07 42.99481 -81.56752 34288 ft 564 kts 58°
2026-05-07 20:08 43.01397 -81.52063 33207 ft 568 kts 58°
2026-05-07 20:08 43.03319 -81.47340 32311 ft 565 kts 58°
2026-05-07 20:08 43.05227 -81.42643 31280 ft 566 kts 58°
2026-05-07 20:08 43.07135 -81.37941 30194 ft 567 kts 59°
2026-05-07 20:09 43.09020 -81.33215 29392 ft 561 kts 59°
2026-05-07 20:09 43.10846 -81.28553 28675 ft 552 kts 60°
2026-05-07 20:09 43.12634 -81.23946 27993 ft 543 kts 60°
2026-05-07 20:10 43.16122 -81.14946 26638 ft 528 kts 60°
2026-05-07 20:10 43.17834 -81.10532 25971 ft 521 kts 60°
2026-05-07 20:10 43.19524 -81.06180 25302 ft 514 kts 61°
2026-05-07 20:10 43.21191 -81.01887 24667 ft 507 kts 61°
2026-05-07 20:11 43.22838 -80.97638 24026 ft 501 kts 61°
2026-05-07 20:11 43.24464 -80.93437 23371 ft 495 kts 61°
2026-05-07 20:11 43.26066 -80.89292 22624 ft 489 kts 61°
2026-05-07 20:11 43.27641 -80.85208 21966 ft 481 kts 61°
2026-05-07 20:12 43.29194 -80.81174 21336 ft 474 kts 61°
2026-05-07 20:12 43.30719 -80.77209 20720 ft 467 kts 61°
2026-05-07 20:12 43.32194 -80.73367 20085 ft 462 kts 61°
2026-05-07 20:12 43.33684 -80.69481 19465 ft 457 kts 61°
2026-05-07 20:13 43.35156 -80.65640 18853 ft 452 kts 61°
2026-05-07 20:13 43.36609 -80.61839 18292 ft 446 kts 61°
2026-05-07 20:13 43.38028 -80.58126 17650 ft 441 kts 61°
2026-05-07 20:13 43.39445 -80.54412 17044 ft 436 kts 61°
2026-05-07 20:14 43.40845 -80.50736 16436 ft 431 kts 61°
2026-05-07 20:14 43.42227 -80.47106 15835 ft 426 kts 61°
2026-05-07 20:14 43.43592 -80.43514 15246 ft 421 kts 61°
2026-05-07 20:14 43.44942 -80.39958 14662 ft 417 kts 60°
2026-05-07 20:15 43.46247 -80.36418 14144 ft 412 kts 64°
2026-05-07 20:15 43.47300 -80.32827 14012 ft 397 kts 69°
2026-05-07 20:15 43.48213 -80.29298 13858 ft 384 kts 69°
2026-05-07 20:15 43.49106 -80.25889 13699 ft 372 kts 68°
2026-05-07 20:16 43.50002 -80.22597 13543 ft 361 kts 68°
2026-05-07 20:16 43.50885 -80.19415 13377 ft 351 kts 67°
2026-05-07 20:16 43.51737 -80.16301 13151 ft 343 kts 68°
2026-05-07 20:16 43.52552 -80.13257 12751 ft 341 kts 68°
2026-05-07 20:17 43.53365 -80.10204 12365 ft 339 kts 68°
2026-05-07 20:17 43.54180 -80.07138 12027 ft 335 kts 68°
2026-05-07 20:17 43.54968 -80.04175 11697 ft 332 kts 69°
2026-05-07 20:17 43.55761 -80.01191 11360 ft 329 kts 69°
2026-05-07 20:18 43.56548 -79.98229 10973 ft 328 kts 69°
2026-05-07 20:18 43.57325 -79.95303 10647 ft 325 kts 69°
2026-05-07 20:18 43.58099 -79.92384 10328 ft 322 kts 69°
2026-05-07 20:18 43.58861 -79.89511 10122 ft 315 kts 69°
2026-05-07 20:19 43.59506 -79.86686 9830 ft 305 kts 81°
2026-05-07 20:19 43.59600 -79.83776 9520 ft 302 kts 91°
2026-05-07 20:19 43.59578 -79.80878 9176 ft 302 kts 91°
2026-05-07 20:19 43.59568 -79.77987 8844 ft 301 kts 90°
2026-05-07 20:20 43.59571 -79.75114 8527 ft 298 kts 90°
2026-05-07 20:20 43.59584 -79.72280 8342 ft 291 kts 90°
2026-05-07 20:20 43.59602 -79.69522 8225 ft 283 kts 90°
2026-05-07 20:20 43.59620 -79.66837 8053 ft 277 kts 90°
2026-05-07 20:21 43.59638 -79.64157 7874 ft 282 kts 89°
2026-05-07 20:21 43.59651 -79.61348 7917 ft 311 kts 90°
2026-05-07 20:21 43.59657 -79.58138 8003 ft 357 kts 90°
2026-05-07 20:21 43.60020 -79.54607 7979 ft 393 kts 69°
2026-05-07 20:22 43.61460 -79.51415 8210 ft 371 kts 46°
2026-05-07 20:22 43.63161 -79.49018 7962 ft 331 kts 43°
2026-05-07 20:22 43.64704 -79.46874 7672 ft 300 kts 43°
2026-05-07 20:22 43.66130 -79.44869 7247 ft 295 kts 43°
2026-05-07 20:23 43.67601 -79.42782 6926 ft 311 kts 44°
2026-05-07 20:23 43.69111 -79.40605 6270 ft 324 kts 44°
2026-05-07 20:23 43.70686 -79.38312 5789 ft 326 kts 44°
2026-05-07 20:23 43.72209 -79.36082 5691 ft 312 kts 44°
2026-05-07 20:24 43.73672 -79.33936 5601 ft 300 kts 44°
2026-05-07 20:24 43.75079 -79.31873 5517 ft 289 kts 44°
2026-05-07 20:24 43.76434 -79.29887 5432 ft 279 kts 44°
2026-05-07 20:24 43.77783 -79.28044 5265 ft 264 kts 32°
2026-05-07 20:25 43.79409 -79.27137 5225 ft 245 kts
2026-05-07 20:25 43.81003 -79.27478 5209 ft 224 kts 330°
2026-05-07 20:25 43.82076 -79.28833 5234 ft 200 kts 298°
2026-05-07 20:25 43.82634 -79.30518 5233 ft 190 kts 290°
2026-05-07 20:26 43.83112 -79.32220 5228 ft 189 kts 290°
2026-05-07 20:26 43.83540 -79.33920 5208 ft 185 kts 279°
2026-05-07 20:26 43.83306 -79.35649 5198 ft 187 kts 242°
2026-05-07 20:26 43.82554 -79.37140 5048 ft 197 kts 237°
2026-05-07 20:27 43.81736 -79.38704 4781 ft 198 kts 236°
2026-05-07 20:27 43.80868 -79.40172 4495 ft 196 kts 232°
2026-05-07 20:27 43.79969 -79.41544 4228 ft 194 kts 230°
2026-05-07 20:27 43.79042 -79.42910 3974 ft 195 kts 230°
2026-05-07 20:28 43.78099 -79.44294 3707 ft 194 kts 230°
2026-05-07 20:28 43.77181 -79.45637 3438 ft 194 kts 230°
2026-05-07 20:28 43.76255 -79.46993 3158 ft 194 kts 230°
2026-05-07 20:28 43.75333 -79.48338 2905 ft 190 kts 229°
2026-05-07 20:29 43.74456 -79.49616 2642 ft 177 kts 230°
2026-05-07 20:29 43.73642 -79.50805 2409 ft 164 kts 230°
2026-05-07 20:29 43.72886 -79.51910 2170 ft 151 kts 231°
2026-05-07 20:29 43.72197 -79.52914 1952 ft 137 kts 231°
2026-05-07 20:30 43.71548 -79.53866 1817 ft 135 kts 231°
2026-05-07 20:30 43.70896 -79.54819 1632 ft 136 kts 231°
2026-05-07 20:30 43.70245 -79.55767 1401 ft 138 kts 232°
2026-05-07 20:30 43.69570 -79.56751 1177 ft 142 kts 231°
2026-05-07 20:31 43.68894 -79.57728 989 ft 140 kts 229°
2026-05-07 20:31 43.68235 -79.58688 785 ft 135 kts 233°
2026-05-07 20:31 43.67574 -79.59641 633 ft 143 kts 233°
2026-05-07 20:31 43.66914 -79.60622 569 ft 122 kts 227°
2026-05-07 20:32 43.66540 -79.61165 571 ft 47 kts 227°
2026-05-07 20:32 43.66415 -79.61448 570 ft 25 kts 250°
2026-05-07 20:32 43.66379 -79.61636 568 ft 17 kts 270°
2026-05-07 20:32 43.66439 -79.61770 575 ft 17 kts 314°
2026-05-07 20:33 43.66523 -79.61882 572 ft 17 kts 315°
2026-05-07 20:33 43.66605 -79.61927 570 ft 13 kts 24°
2026-05-07 20:33 43.66670 -79.61844 570 ft 13 kts 46°
2026-05-07 20:33 43.66759 -79.61716 575 ft 24 kts 46°
2026-05-07 20:34 43.66873 -79.61547 574 ft 24 kts 46°
2026-05-07 20:34 43.66988 -79.61379 576 ft 24 kts 46°
2026-05-07 20:34 43.67106 -79.61214 574 ft 24 kts 45°
2026-05-07 20:34 43.67204 -79.61073 571 ft 19 kts 46°
2026-05-07 20:35 43.67298 -79.60935 572 ft 20 kts 46°
2026-05-07 20:35 43.67376 -79.60825 572 ft 13 kts 37°
2026-05-07 20:35 43.67457 -79.60838 573 ft 13 kts 319°
2026-05-07 20:35 43.67515 -79.60931 575 ft 13 kts 306°
2026-05-07 20:36 43.67584 -79.61002 575 ft 13 kts 330°
2026-05-07 20:36 43.67608 -79.61021 569 ft 0 kts 330°